QPF
0.03 0.04 0.03 0.02 0.01 0.02 0.02 0.03 0.03 0.03 0.03 0.03 0.01 0.00 0.00 0.00 0.01 0.00 0.00 0.01 0.01 0.01 0.00 0.01 0.02 0.01 0.01 0.04 0.07 0.07 0.08 0.08 0.08 0.08 0.09 0.08 0.07 0.09
0.02 0.02 0.03 0.02 0.01 0.01 0.02 0.02 0.03 0.03 0.02 0.02 0.01 0.00 0.00 0.00 0.01 0.01 0.01 0.01 0.01 0.01 0.01 0.02 0.03 0.03 0.02 0.02 0.04 0.05 0.08 0.09 0.09 0.09 0.09 0.06 0.04 0.04
0.02 0.02 0.03 0.01 0.01 0.02 0.02 0.03 0.03 0.04 0.03 0.02 0.01 0.00 0.00 0.01 0.01 0.01 0.01 0.01 0.01 0.01 0.01 0.01 0.02 0.04 0.04 0.03 0.04 0.04 0.05 0.06 0.06 0.05 0.05 0.04 0.03 0.02
0.03 0.04 0.04 0.02 0.02 0.03 0.03 0.03 0.03 0.03 0.03 0.02 0.01 0.01 0.01 0.01 0.01 0.01 0.01 0.01 0.02 0.02 0.01 0.01 0.01 0.03 0.04 0.03 0.02 0.02 0.02 0.02 0.02 0.02 0.02 0.02 0.01 0.01
0.03 0.03 0.03 0.04 0.04 0.02 0.02 0.02 0.02 0.02 0.03 0.02 0.01 0.02 0.02 0.01 0.01 0.01 0.01 0.01 0.02 0.02 0.01 0.01 0.01 0.01 0.02 0.02 0.02 0.01 0.01 0.01 0.01 0.01 0.01 0.01 0.01 0.01
0.02 0.02 0.02 0.02 0.03 0.02 0.01 0.01 0.01 0.02 0.02 0.02 0.01 0.02 0.03 0.01 0.00 0.01 0.01 0.01 0.02 0.02 0.01 0.01 0.01 0.01 0.01 0.01 0.01 0.01 0.00 0.00 0.01 0.01 0.00 0.00 0.00 0.01
0.03 0.03 0.03 0.03 0.03 0.03 0.02 0.02 0.02 0.02 0.02 0.02 0.02 0.02 0.02 0.02 0.00 0.01 0.02 0.01 0.01 0.02 0.01 0.01 0.01 0.01 0.00 0.00 0.00 0.00 0.00 0.00 0.00 0.00 0.00 0.00 0.00 0.01
0.04 0.04 0.04 0.04 0.04 0.04 0.03 0.02 0.02 0.02 0.02 0.02 0.02 0.03 0.02 0.01 0.01 0.01 0.02 0.02 0.01 0.02 0.01 0.01 0.01 0.01 0.01 0.00 0.00 0.00 0.00 0.00 0.00 0.00 0.00 0.00 0.00 0.00
0.03 0.04 0.04 0.03 0.03 0.03 0.03 0.02 0.01 0.01 0.01 0.01 0.01 0.02 0.02 0.01 0.01 0.01 0.03 0.04 0.01 0.01 0.01 0.01 0.00 0.01 0.01 0.01 0.01 0.01 0.01 0.00 0.00 0.00 0.00 0.00 0.00 0.00
0.03 0.03 0.03 0.03 0.03 0.03 0.04 0.03 0.01 0.01 0.01 0.00 0.00 0.00 0.01 0.01 0.01 0.02 0.03 0.07 0.04 0.01 0.01 0.01 0.01 0.01 0.01 0.01 0.02 0.02 0.02 0.01 0.00 0.00 0.00 0.00 0.00 0.00
0.02 0.02 0.03 0.03 0.04 0.04 0.04 0.04 0.03 0.01 0.01 0.01 0.00 0.00 0.01 0.01 0.01 0.02 0.03 0.05 0.06 0.03 0.01 0.01 0.01 0.01 0.01 0.01 0.01 0.02 0.02 0.02 0.01 0.00 0.00 0.00 0.00 0.00
0.02 0.02 0.03 0.03 0.05 0.05 0.03 0.03 0.03 0.02 0.02 0.01 0.01 0.00 0.01 0.01 0.02 0.02 0.03 0.04 0.05 0.04 0.01 0.01 0.01 0.01 0.01 0.01 0.01 0.01 0.01 0.02 0.02 0.01 0.01 0.00 0.00 0.00
0.02 0.01 0.02 0.02 0.02 0.03 0.04 0.03 0.04 0.04 0.03 0.02 0.02 0.01 0.01 0.01 0.02 0.02 0.02 0.02 0.02 0.03 0.01 0.01 0.01 0.01 0.01 0.01 0.00 0.00 0.00 0.01 0.01 0.02 0.02 0.01 0.01 0.01
0.01 0.01 0.02 0.02 0.02 0.02 0.02 0.03 0.04 0.04 0.04 0.03 0.03 0.02 0.01 0.02 0.03 0.03 0.02 0.02 0.01 0.02 0.01 0.01 0.01 0.01 0.01 0.01 0.01 0.00 0.00 0.01 0.01 0.02 0.02 0.02 0.01 0.01
0.02 0.03 0.03 0.03 0.02 0.02 0.02 0.02 0.03 0.03 0.04 0.04 0.04 0.02 0.02 0.02 0.03 0.03 0.03 0.02 0.02 0.02 0.02 0.01 0.01 0.01 0.01 0.01 0.01 0.00 0.00 0.00 0.01 0.01 0.02 0.02 0.02 0.02
0.01 0.02 0.02 0.02 0.02 0.02 0.02 0.03 0.03 0.03 0.03 0.03 0.03 0.03 0.03 0.03 0.03 0.03 0.02 0.01 0.02 0.02 0.02 0.01 0.01 0.01 0.01 0.01 0.01 0.00 0.00 0.00 0.00 0.01 0.01 0.02 0.03 0.03
0.01 0.01 0.01 0.01 0.01 0.01 0.02 0.02 0.02 0.03 0.03 0.03 0.03 0.03 0.03 0.04 0.03 0.03 0.02 0.02 0.01 0.02 0.02 0.01 0.01 0.02 0.01 0.01 0.01 0.01 0.01 0.00 0.01 0.01 0.01 0.01 0.01 0.02
0.01 0.01 0.01 0.02 0.02 0.02 0.02 0.02 0.02 0.02 0.03 0.03 0.03 0.03 0.03 0.04 0.04 0.04 0.03 0.02 0.02 0.02 0.02 0.01 0.01 0.02 0.03 0.02 0.01 0.01 0.01 0.01 0.01 0.01 0.01 0.01 0.01 0.01
0.01 0.02 0.03 0.02 0.02 0.02 0.02 0.02 0.02 0.02 0.02 0.02 0.02 0.03 0.03 0.03 0.03 0.03 0.03 0.02 0.02 0.02 0.02 0.01 0.01 0.02 0.02 0.02 0.01 0.01 0.01 0.01 0.01 0.01 0.01 0.01 0.01 0.01
0.01 0.01 0.01 0.01 0.01 0.01 0.02 0.02 0.02 0.02 0.03 0.03 0.02 0.03 0.03 0.03 0.02 0.02 0.02 0.02 0.02 0.03 0.02 0.02 0.01 0.01 0.02 0.02 0.02 0.01 0.01 0.01 0.00 0.00 0.01 0.01 0.01 0.01
0.01 0.01 0.01 0.01 0.01 0.01 0.02 0.02 0.03 0.02 0.03 0.03 0.03 0.03 0.03 0.03 0.02 0.01 0.01 0.02 0.02 0.02 0.02 0.02 0.01 0.02 0.02 0.02 0.02 0.01 0.01 0.00 0.00 0.01 0.01 0.02 0.02 0.01
0.01 0.01 0.01 0.01 0.01 0.01 0.01 0.02 0.03 0.03 0.03 0.03 0.03 0.04 0.03 0.03 0.02 0.02 0.02 0.01 0.01 0.01 0.02 0.01 0.01 0.02 0.02 0.02 0.03 0.02 0.02 0.01 0.01 0.01 0.01 0.01 0.01 0.01
0.01 0.01 0.01 0.01 0.01 0.01 0.01 0.02 0.02 0.02 0.03 0.04 0.04 0.04 0.04 0.03 0.02 0.02 0.02 0.02 0.02 0.01 0.01 0.01 0.01 0.02 0.03 0.03 0.03 0.03 0.02 0.02 0.02 0.02 0.01 0.01 0.01 0.01
MSLP
1012.79 1013.01 1013.27 1013.51 1013.68 1013.74 1013.65 1013.41 1013.05 1012.61 1012.14 1011.70 1011.30 1010.97 1010.70 1010.47 1010.26 1010.05 1009.84 1009.64 1009.49 1009.40 1009.41 1009.51 1009.69 1009.91 1010.13 1010.28 1010.34 1010.29 1010.13 1009.92 1009.71 1009.55 1009.49 1009.54 1009.68 1009.83
1012.60 1012.84 1013.12 1013.39 1013.59 1013.69 1013.64 1013.44 1013.11 1012.70 1012.25 1011.80 1011.39 1011.03 1010.72 1010.44 1010.16 1009.89 1009.60 1009.33 1009.09 1008.92 1008.85 1008.89 1009.01 1009.20 1009.41 1009.57 1009.66 1009.65 1009.55 1009.39 1009.22 1009.10 1009.06 1009.13 1009.28 1009.46
1012.56 1012.79 1013.06 1013.34 1013.57 1013.69 1013.68 1013.53 1013.24 1012.87 1012.45 1012.03 1011.62 1011.26 1010.93 1010.61 1010.29 1009.95 1009.59 1009.23 1008.90 1008.63 1008.45 1008.39 1008.42 1008.55 1008.71 1008.86 1008.96 1008.98 1008.92 1008.80 1008.67 1008.57 1008.55 1008.63 1008.79 1009.00
1012.73 1012.93 1013.18 1013.45 1013.68 1013.82 1013.84 1013.72 1013.48 1013.15 1012.77 1012.38 1012.01 1011.66 1011.33 1011.00 1010.66 1010.27 1009.85 1009.41 1008.97 1008.59 1008.28 1008.09 1008.01 1008.03 1008.11 1008.21 1008.29 1008.31 1008.27 1008.18 1008.07 1007.98 1007.96 1008.02 1008.19 1008.41
1013.15 1013.30 1013.52 1013.77 1013.98 1014.12 1014.14 1014.05 1013.84 1013.55 1013.21 1012.86 1012.53 1012.21 1011.91 1011.59 1011.24 1010.83 1010.37 1009.86 1009.33 1008.83 1008.39 1008.06 1007.84 1007.73 1007.70 1007.71 1007.73 1007.72 1007.66 1007.56 1007.44 1007.33 1007.29 1007.33 1007.48 1007.70
1013.80 1013.90 1014.08 1014.29 1014.47 1014.59 1014.61 1014.52 1014.32 1014.06 1013.76 1013.45 1013.15 1012.88 1012.61 1012.32 1011.98 1011.58 1011.09 1010.54 1009.94 1009.34 1008.78 1008.30 1007.93 1007.67 1007.50 1007.40 1007.33 1007.24 1007.13 1006.99 1006.83 1006.68 1006.59 1006.59 1006.68 1006.88
1014.62 1014.68 1014.81 1014.97 1015.12 1015.20 1015.20 1015.09 1014.90 1014.64 1014.36 1014.07 1013.81 1013.57 1013.35 1013.10 1012.80 1012.42 1011.94 1011.37 1010.72 1010.05 1009.38 1008.78 1008.26 1007.84 1007.53 1007.29 1007.09 1006.91 1006.71 1006.50 1006.27 1006.06 1005.90 1005.83 1005.86 1006.01
1015.50 1015.53 1015.63 1015.75 1015.84 1015.89 1015.84 1015.71 1015.49 1015.23 1014.95 1014.67 1014.43 1014.23 1014.04 1013.83 1013.58 1013.24 1012.79 1012.24 1011.58 1010.86 1010.12 1009.41 1008.76 1008.20 1007.73 1007.35 1007.02 1006.72 1006.43 1006.12 1005.81 1005.52 1005.27 1005.11 1005.05 1005.12
1016.35 1016.37 1016.43 1016.51 1016.57 1016.56 1016.47 1016.30 1016.06 1015.77 1015.47 1015.19 1014.96 1014.77 1014.60 1014.44 1014.24 1013.95 1013.55 1013.03 1012.39 1011.66 1010.88 1010.10 1009.35 1008.67 1008.06 1007.54 1007.08 1006.66 1006.26 1005.86 1005.46 1005.08 1004.74 1004.47 1004.32 1004.29
1017.09 1017.10 1017.15 1017.19 1017.21 1017.16 1017.03 1016.82 1016.54 1016.22 1015.89 1015.60 1015.35 1015.16 1015.01 1014.87 1014.71 1014.47 1014.13 1013.66 1013.06 1012.35 1011.56 1010.73 1009.91 1009.14 1008.43 1007.79 1007.21 1006.68 1006.18 1005.69 1005.21 1004.75 1004.32 1003.95 1003.68 1003.54
1017.69 1017.70 1017.72 1017.75 1017.73 1017.65 1017.49 1017.25 1016.94 1016.59 1016.23 1015.90 1015.63 1015.42 1015.26 1015.13 1014.99 1014.80 1014.50 1014.09 1013.53 1012.85 1012.07 1011.24 1010.38 1009.54 1008.74 1008.01 1007.34 1006.72 1006.14 1005.57 1005.03 1004.49 1003.98 1003.53 1003.16 1002.90
1018.15 1018.15 1018.17 1018.18 1018.15 1018.06 1017.88 1017.62 1017.28 1016.91 1016.52 1016.16 1015.85 1015.60 1015.42 1015.28 1015.13 1014.95 1014.69 1014.32 1013.80 1013.16 1012.40 1011.57 1010.69 1009.80 1008.95 1008.14 1007.40 1006.70 1006.06 1005.44 1004.84 1004.25 1003.69 1003.16 1002.71 1002.34
1018.51 1018.52 1018.53 1018.53 1018.50 1018.41 1018.23 1017.97 1017.63 1017.24 1016.83 1016.43 1016.08 1015.78 1015.56 1015.37 1015.20 1015.01 1014.75 1014.39 1013.91 1013.29 1012.55 1011.71 1010.82 1009.90 1009.00 1008.13 1007.33 1006.57 1005.87 1005.21 1004.57 1003.96 1003.37 1002.80 1002.28 1001.84
1018.84 1018.84 1018.85 1018.86 1018.84 1018.77 1018.61 1018.36 1018.04 1017.64 1017.21 1016.78 1016.38 1016.03 1015.74 1015.49 1015.27 1015.03 1014.75 1014.38 1013.89 1013.28 1012.54 1011.70 1010.78 1009.83 1008.88 1007.95 1007.08 1006.27 1005.53 1004.83 1004.18 1003.55 1002.95 1002.37 1001.83 1001.33
1019.18 1019.17 1019.19 1019.21 1019.22 1019.17 1019.05 1018.84 1018.53 1018.15 1017.71 1017.25 1016.80 1016.38 1016.01 1015.68 1015.38 1015.08 1014.74 1014.33 1013.81 1013.17 1012.41 1011.55 1010.60 1009.60 1008.58 1007.59 1006.66 1005.79 1004.99 1004.26 1003.59 1002.97 1002.38 1001.81 1001.28 1000.78
1019.54 1019.54 1019.57 1019.62 1019.66 1019.65 1019.57 1019.39 1019.12 1018.75 1018.31 1017.82 1017.32 1016.83 1016.38 1015.96 1015.57 1015.18 1014.77 1014.29 1013.72 1013.03 1012.22 1011.31 1010.30 1009.23 1008.15 1007.08 1006.06 1005.11 1004.26 1003.49 1002.80 1002.18 1001.61 1001.08 1000.59 1000.12
1019.94 1019.94 1019.99 1020.07 1020.14 1020.18 1020.14 1020.01 1019.76 1019.41 1018.96 1018.45 1017.90 1017.34 1016.81 1016.30 1015.81 1015.33 1014.82 1014.27 1013.62 1012.87 1012.00 1011.02 1009.94 1008.79 1007.61 1006.44 1005.32 1004.29 1003.36 1002.53 1001.81 1001.19 1000.65 1000.17 999.73 999.33
1020.33 1020.36 1020.44 1020.55 1020.65 1020.72 1020.72 1020.62 1020.39 1020.05 1019.59 1019.06 1018.46 1017.85 1017.24 1016.65 1016.07 1015.50 1014.91 1014.27 1013.55 1012.73 1011.78 1010.72 1009.55 1008.31 1007.02 1005.75 1004.52 1003.38 1002.36 1001.46 1000.70 1000.07 999.54 999.10 998.72 998.40
1020.70 1020.76 1020.87 1021.01 1021.15 1021.24 1021.26 1021.17 1020.96 1020.61 1020.14 1019.58 1018.95 1018.29 1017.61 1016.95 1016.31 1015.66 1015.00 1014.29 1013.51 1012.61 1011.60 1010.46 1009.20 1007.86 1006.47 1005.08 1003.74 1002.48 1001.36 1000.38 999.56 998.89 998.36 997.94 997.62 997.36
1021.02 1021.12 1021.26 1021.42 1021.58 1021.69 1021.72 1021.63 1021.41 1021.05 1020.57 1019.98 1019.32 1018.62 1017.91 1017.20 1016.50 1015.81 1015.10 1014.34 1013.50 1012.55 1011.48 1010.27 1008.94 1007.52 1006.03 1004.53 1003.08 1001.71 1000.48 999.41 998.51 997.79 997.23 996.81 996.51 996.29
1021.27 1021.42 1021.59 1021.78 1021.95 1022.06 1022.07 1021.97 1021.73 1021.35 1020.85 1020.24 1019.56 1018.84 1018.11 1017.37 1016.65 1015.94 1015.20 1014.42 1013.55 1012.57 1011.47 1010.22 1008.83 1007.34 1005.78 1004.20 1002.65 1001.18 999.85 998.69 997.70 996.91 996.29 995.84 995.52 995.29
1021.48 1021.67 1021.88 1022.08 1022.24 1022.33 1022.33 1022.20 1021.93 1021.53 1021.01 1020.39 1019.70 1018.97 1018.24 1017.51 1016.79 1016.07 1015.33 1014.55 1013.68 1012.70 1011.58 1010.32 1008.91 1007.39 1005.79 1004.15 1002.53 1001.00 999.58 998.33 997.26 996.38 995.68 995.15 994.77 994.49
1021.66 1021.89 1022.12 1022.32 1022.47 1022.54 1022.50 1022.34 1022.04 1021.62 1021.08 1020.45 1019.77 1019.05 1018.33 1017.62 1016.92 1016.23 1015.52 1014.76 1013.91 1012.95 1011.85 1010.61 1009.22 1007.70 1006.10 1004.45 1002.81 1001.23 999.76 998.44 997.29 996.31 995.52 994.89 994.40 994.02
Thickness
5674 5673 5671 5670 5669 5667 5664 5660 5653 5646 5646 5650 5652 5654 5654 5652 5650 5648 5646 5645 5643 5642 5641 5640 5639 5638 5637 5636 5635 5634 5634 5633 5633 5632 5632 5631 5630 5630
5672 5670 5669 5668 5667 5665 5662 5660 5657 5651 5646 5648 5650 5651 5651 5649 5646 5644 5643 5641 5639 5638 5636 5635 5634 5633 5631 5630 5629 5628 5627 5627 5626 5625 5625 5624 5623 5622
5669 5667 5666 5666 5664 5662 5660 5658 5656 5652 5646 5646 5648 5648 5647 5645 5642 5641 5639 5637 5635 5634 5632 5631 5629 5628 5626 5625 5624 5623 5622 5621 5620 5619 5618 5618 5617 5616
5665 5664 5663 5662 5660 5659 5657 5655 5653 5651 5646 5642 5643 5643 5642 5641 5639 5638 5636 5633 5631 5630 5628 5627 5625 5623 5622 5620 5618 5617 5616 5615 5614 5613 5612 5611 5610 5609
5662 5661 5660 5658 5655 5654 5653 5651 5649 5648 5645 5641 5639 5639 5638 5637 5635 5633 5632 5629 5627 5625 5624 5622 5620 5619 5617 5615 5613 5612 5611 5610 5608 5607 5606 5605 5604 5603
5658 5658 5657 5655 5652 5651 5649 5647 5645 5642 5640 5638 5636 5634 5633 5632 5630 5626 5624 5624 5623 5622 5620 5617 5616 5614 5612 5611 5609 5607 5605 5604 5602 5601 5600 5599 5598 5597
5653 5653 5652 5651 5650 5648 5646 5643 5641 5637 5635 5633 5631 5629 5627 5625 5624 5623 5619 5618 5617 5617 5614 5612 5611 5609 5608 5606 5604 5602 5600 5598 5597 5595 5594 5593 5592 5591
5648 5647 5647 5646 5645 5644 5643 5641 5639 5635 5631 5629 5627 5625 5624 5623 5621 5620 5615 5612 5609 5611 5609 5607 5606 5604 5603 5601 5599 5597 5595 5593 5592 5590 5589 5588 5587 5586
5643 5642 5642 5642 5640 5638 5637 5636 5634 5633 5631 5628 5625 5624 5623 5622 5618 5615 5612 5609 5606 5606 5604 5601 5601 5599 5598 5596 5595 5593 5590 5588 5587 5585 5584 5583 5582 5581
5638 5637 5636 5634 5634 5632 5631 5629 5629 5628 5627 5625 5624 5623 5622 5620 5617 5613 5609 5606 5603 5602 5600 5596 5595 5594 5593 5591 5589 5588 5586 5583 5582 5580 5579 5578 5578 5577
5632 5631 5630 5628 5629 5627 5624 5623 5622 5622 5622 5621 5621 5619 5618 5616 5613 5608 5603 5599 5595 5595 5595 5592 5590 5588 5587 5586 5585 5583 5580 5579 5577 5576 5575 5574 5573 5572
5624 5625 5625 5623 5622 5621 5618 5617 5615 5615 5615 5614 5613 5613 5612 5610 5608 5604 5600 5595 5591 5589 5590 5587 5585 5583 5580 5581 5579 5577 5575 5573 5572 5571 5571 5570 5569 5568
5616 5616 5617 5617 5615 5614 5613 5612 5611 5610 5608 5607 5606 5605 5604 5603 5601 5599 5597 5593 5589 5586 5587 5584 5580 5578 5575 5573 5573 5572 5570 5569 5567 5567 5566 5566 5565 5564
5609 5610 5609 5609 5608 5608 5607 5606 5606 5604 5602 5600 5598 5598 5597 5596 5595 5593 5591 5589 5587 5584 5583 5580 5577 5574 5570 5567 5567 5567 5565 5564 5563 5562 5561 5561 5560 5560
5604 5604 5603 5602 5601 5600 5600 5600 5598 5596 5595 5593 5591 5592 5593 5592 5590 5588 5585 5583 5581 5580 5578 5576 5574 5571 5567 5564 5562 5561 5560 5559 5559 5558 5557 5556 5555 5555
5596 5596 5596 5596 5594 5593 5592 5592 5591 5590 5589 5587 5586 5587 5587 5585 5583 5581 5578 5576 5573 5572 5572 5570 5569 5566 5563 5561 5559 5557 5556 5554 5554 5553 5553 5552 5551 5551
5589 5588 5587 5586 5586 5586 5586 5585 5585 5584 5583 5582 5581 5580 5580 5579 5577 5575 5573 5570 5567 5566 5564 5564 5563 5561 5559 5557 5554 5553 5552 5551 5550 5549 5548 5547 5547 5546
5583 5582 5581 5581 5581 5581 5580 5579 5579 5579 5578 5577 5575 5574 5574 5572 5571 5569 5567 5565 5562 5560 5559 5557 5555 5553 5551 5550 5551 5550 5548 5547 5546 5544 5543 5541 5541 5542
5577 5577 5577 5576 5576 5575 5575 5575 5574 5574 5573 5572 5570 5569 5568 5567 5565 5563 5560 5559 5557 5555 5553 5551 5549 5545 5542 5543 5546 5546 5544 5542 5540 5539 5538 5537 5536 5537
5573 5573 5573 5572 5572 5571 5570 5570 5569 5569 5568 5567 5566 5565 5563 5562 5560 5558 5556 5554 5552 5550 5548 5546 5544 5542 5540 5540 5540 5541 5540 5538 5536 5534 5533 5532 5530 5530
5569 5568 5568 5568 5567 5566 5565 5565 5564 5564 5563 5562 5561 5560 5559 5557 5555 5554 5552 5550 5547 5545 5543 5542 5542 5539 5537 5534 5533 5534 5534 5533 5533 5530 5528 5525 5523 5522
5564 5563 5563 5562 5562 5561 5560 5558 5558 5558 5557 5556 5556 5555 5554 5552 5551 5549 5547 5545 5542 5541 5539 5538 5535 5532 5530 5529 5529 5529 5527 5526 5526 5525 5523 5522 5519 5518
5558 5557 5556 5555 5555 5554 5553 5552 5552 5551 5550 5550 5549 5549 5548 5547 5546 5544 5542 5540 5538 5536 5534 5531 5529 5527 5526 5525 5524 5523 5522 5520 5518 5517 5516 5516 5515 5515